Other Public Products
Issued by NWS Grand Forks, ND

Home | Current Version | Previous Version | Text Only | Print | Product List | Glossary Off
Versions: 1 2 3 4 5 6 7 8 9 10 11 12 13 14 15 16 17 18 19 20 21 22 23 24 25 26 27 28 29 30 31 32 33 34 35 36 37 38 39 40 41 42 43 44 45 46 47 48 49 50

000
FPUS83 KFGF 030110
OPUFGF
PRAIRIE TO PINES WEATHER ROUNDUP
NATIONAL WEATHER SERVICE EASTERN NORTH DAKOTA/GRAND FORKS ND
800 PM CDT SUN AUG 02 2015

 **SATELLITE DATA USED TO AUGMENT SKY COVER AT AUTOMATED STATIONS**
 *****  WEATHER ACROSS EASTERN NORTH DAKOTA  *****

CITY           SKY/WX    TMP DP  RH WIND       PRES   REMARKS
GRAND FORKS    PTCLDY    74  48  39 NW15      29.81S
GRAND FORKS AF CLEAR     72  47  41 NW13      29.83R
GRAND CITY NWS NOT AVBL
BUXTON         NOT AVBL
DEVILS LAKE    SUNNY     72  46  40 NW12      29.87S
FARGO          CLEAR     74  50  42 NW10      29.84S
WAHPETON ARPT  CLEAR     72  43  35 N12       29.85R
$$

 *****  WEATHER ACROSS CENTRAL AND WESTERN NORTH DAKOTA  *****

CITY           SKY/WX    TMP DP  RH WIND       PRES   REMARKS
JAMESTOWN      CLEAR     72  52  49 NW9       29.89R
BISMARCK       SUNNY     76  51  41 N13       29.94R
MINOT          SUNNY     75  47  36 NW15      29.92S
MINOT AFB      SUNNY     79  48  33 NW13      29.91S
GARRISON         N/A     74  53  48 NW8       29.94S
WILLISTON      SUNNY     79  45  29 N9        29.97S
DICKINSON      SUNNY     77  47  34 N10       29.97S
HETTINGER      SUNNY     80  47  31 N7        29.99S
$$

 *****  OTHER OBSERVATIONS NORTHEAST NORTH DAKOTA  *****

CITY           SKY/WX    TMP DP  RH WIND       PRES   REMARKS
WALHALLA       FAIR      72  48  43 MISG      29.83R
LANGDON        FAIR      70  46  43 NW13      29.87R
CAVALIER       FAIR      72  48  43 NW8       29.82R
GRAFTON        FAIR      73  48  40 NW14G21   29.82S
CANDO          NOT AVBL
FORT TOTTEN      N/A     72  49  44 NW7       29.95S
ROLLA          FAIR      66  48  52 NW9G16    29.91S
RUGBY          NOT AVBL
 ***** THE ABOVE OBSERVATIONS ARE NON NWS ARE NOT QUALITY
        CONTROLLED AND MAY MIS-REPORT RAIN FOR SNOW...
$$

 *****  OTHER OBSERVATIONS SOUTHEAST NORTH DAKOTA *****

CITY           SKY/WX    TMP DP  RH WIND       PRES   REMARKS
COOPERSTOWN    NOT AVBL
VALLEY CITY    FAIR      73  50  43 NW10      29.88S
OAKES            N/A     73  57  56 N9        29.88S
GWINNER        FAIR      73  52  46 N7        29.88S
SHEYENNE NWR     N/A     75  48  38 N6        29.95S
BUFFALO        NOT AVBL
WYNDMERE         N/A     72  54  53 N6          N/A
 ***** THE ABOVE OBSERVATIONS ARE NON NWS ARE NOT QUALITY
       CONTROLLED AND MAY MIS-REPORT RAIN FOR SNOW...
$$

  *****  WEATHER ACROSS NORTHERN MINNESOTA  *****

CITY           SKY/WX    TMP DP  RH WIND       PRES   REMARKS
FLAG ISLAND    CLOUDY    68  48  49 NW16G22   29.75S
WARROAD        CLEAR     68  46  45 NW12      29.79R
ROSEAU         CLEAR     66  48  52 NW10G16   29.79S
HALLOCK        CLEAR     72  45  37 N12       29.80R
THF RVR FALLS  CLEAR     70  48  46 NW7       29.82R
HALSTAD        NOT AVBL
FOSSTON        CLEAR     72  46  40 CALM      29.83S
BAUDETTE       CLOUDY    67  46  47 NW14G21   29.76R
WASKISH        CLEAR     70  46  43 W15G26    29.78R
CROOKSTON      CLEAR     72  50  46 NW12      29.82S
$$
  *****  WEATHER ACROSS CENTRAL AND WEST MINNESOTA  *****

CITY           SKY/WX    TMP DP  RH WIND       PRES   REMARKS
BEMIDJI        CLEAR     69  43  39 NW16G23   29.80S
PARK RAPIDS    CLEAR     70  45  40 NW14G21   29.82R
WADENA         CLEAR     70  48  46 NW12      29.83R
DETROIT LAKES  CLEAR     70  48  46 NW7       29.86R
MOORHEAD       CLEAR     70  54  56 NW5       29.85R
FERGUS FALLS   CLEAR     72  50  46 NW10      29.84R
ELBOW LAKE     FAIR      72  53  51 NW14      29.84S
MORRIS MN      CLEAR     73  55  53 NW9       29.84R
STAPLES        CLEAR     70  46  43 NW10      29.82R
WHEATON        CLEAR     72  52  49 NW7       29.87R
$$
  *****  WEATHER ELSEWHERE ACROSS MINNESOTA  *****

CITY           SKY/WX    TMP DP  RH WIND       PRES   REMARKS
DULUTH         PTCLDY    69  46  43 NW9       29.73R
INTRNTL FALLS  CLOUDY    66  45  46 NW8       29.73R
ELY            CLOUDY    66  41  39 NW13G18   29.72R
CLOQUET        CLEAR     70  43  37 W8        29.75R
BRAINERD       CLEAR     72  45  37 NW12      29.80R
HIBBING        PTCLDY    67  47  48 W9        29.74R
ALEXANDRIA     CLEAR     72  51  47 NW14G20   29.85R
SAINT CLOUD    CLEAR     72  50  45 NW13      29.79R
MINNEAPOLIS    PTCLDY    78  54  43 NW16G25   29.75R
$$

  *****  WEATHER ACROSS SOUTH DAKOTA  *****

CITY           SKY/WX    TMP DP  RH WIND       PRES   REMARKS
SIOUX FALLS    CLEAR     77  61  57 N8        29.87R
BROOKINGS      CLEAR     73  57  56 NW8       29.90R
WATERTOWN      CLEAR     73  56  54 N12       29.88S
HURON          CLEAR     77  59  53 N8        29.87R
SISSETON         N/A     73  56  54 N9        29.85S
ABERDEEN       CLEAR     78  56  46 N6        29.88S
MITCHELL       CLEAR     78  63  59 NE6       29.88R
PIERRE         SUNNY     82  52  35 N9        29.89S
MOBRIDGE       SUNNY     80  55  42 N9        29.90S
RAPID CITY     SUNNY     80  57  45 NE8       29.97S
$$

  *****  SOME WEATHER IN NEARBY STATES *****

CITY           SKY/WX    TMP DP  RH WIND       PRES   REMARKS
GLASGOW MT     SUNNY     82  47  29 N7        29.97F
GREAT FALLS MT FAIR      86  33  15 E9        29.95F
CHEYENNE WY    PTSUNNY   82  47  29 SE9       30.10F
SCOTTSBLUFF NE MOSUNNY   86  52  30 SE5       29.96S
OMAHA NE       MOCLDY    87  76  69 N7        29.80R HX  97
DES MOINES IA  MOCLDY    77  64  64 S5        29.79S
DAVENPORT IA   PTCLDY    84  74  71 SW9       29.73R HX  91
CHICAGO IL     MOCLDY    86  71  60 SW18G31   29.66S HX  91
EAU CLAIRE WI  CLEAR     75  56  51 NW10      29.70R
LA CROSSE WI   CLEAR     80  62  54 NW10      29.68R
$$

  *****  SOME NATIONAL WEATHER *****

CITY           SKY/WX    TMP DP  RH WIND       PRES   REMARKS
LA GUARDIA NY  PTCLDY    80  63  55 S9        29.88R
RALEIGH NC     PTCLDY    78  58  49 CALM      29.93S
ATLANTA GA     MOCLDY    88  63  43 CALM      29.89S
NEW ORLEANS LA MOCLDY    88  65  46 S8        29.85S HX  90
OKLAHOMA CITY  MOCLDY    82  65  56 S8        29.89R
ALBUQUERQUE NM CLOUDY    76  53  44 S13       30.11F
SALT LAKE CITY CLOUDY    82  48  30 S22G31    29.95F
LOS ANGELES CA MOSUNNY   73  65  75 W13       29.84F
BOISE ID       CLOUDY    97  44  16 W6        29.77F HX  93
SEATTLE WA     CLOUDY    86  50  28 SW3       29.91S
$$

*** WEATHER ACROSS MANITOBA...SASKATCHEWAN AND ONTARIO ***
                ***ONTARIO***

CITY           SKY/WX    TMP DP  RH WIND       PRES   REMARKS
GERALDTON      CLOUDY    57  52  82 W7        29.58R
THUNDER BAY    MOCLDY    68  50  52 NW9       29.63R
SIOUX LOOKOUT  CLOUDY    57  50  77 NW7       29.69R
TORONTO        CLOUDY    68  63  83 S8        29.64F
BIG TROUT LK   LGT RAIN  50  48  93 NW12G18   29.55S
PICKLE LAKE    LGT RAIN  54  50  87 W12G18    29.61R
DRYDEN         MOCLDY    61  48  63 NW8G21    29.72R
KENORA         MOCLDY    63  48  59 N5        29.75S
$$
                *** MANITOBA***

CITY           SKY/WX    TMP DP  RH WIND       PRES   REMARKS
BRANDON        NOT AVBL
DAUPHIN        SUNNY     68  48  49 N9        29.85R
ISLAND LAKE    CLOUDY    55  52  88 N13G23    29.68R
PILOT MOUND      N/A     66  50  55 NW10        N/A
THE PAS        PTSUNNY   64  48  55 N15G22    29.87S
THOMPSON       CLOUDY    55  50  82 N13       29.78R
WINNIPEG       PTCLDY    68  45  42 NW14G21   29.81R
LYNN LAKE      PTSUNNY   64  46  52 N14G22    29.85R
CHURCHILL      LGT RAIN  46  45  93 NE17      29.74R FOG
GILLAM         DRZL/FOG  52  50  93 N16G22    29.68R VSB 1
$$
                ***SASKATCHEWAN***

CITY           SKY/WX    TMP DP  RH WIND       PRES   REMARKS
ESTEVAN        MOSUNNY   73  48  40 N13       29.97S
KINDERSLEY     MOSUNNY   75  50  41 NE5       29.99F
LLOYDMINSTER   MOSUNNY   75  46  35 NE3       29.99F
PRINCE ALBERT  MOSUNNY   73  52  46 NW12G17   29.94S
REGINA         MOSUNNY   73  50  43 NW10      29.99S


USA.gov is the U.S. government's official web portal to all federal, state and local government web resources and services.